Regional Weather Roundup
Issued by NWS

Home | Current Version | Previous Version | Text Only | Print | Product List | Glossary Off
Versions: 1 2 3 4 5 6 7 8 9 10 11 12 13 14 15 16 17 18 19 20 21 22 23 24 25 26 27 28 29 30 31 32 33 34 35 36 37 38 39 40 41 42 43 44 45 46 47 48 49 50

000
ASUS43 KDTX 211310
RWRMI
MICHIGAN HOURLY REGIONAL WEATHER ROUNDUP
NATIONAL WEATHER SERVICE DETROIT/PONTIAC MI
900 AM EDT SUN SEP 21 2014

NOTE: "FAIR" INDICATES FEW OR NO CLOUDS BELOW 12,000 FEET WITH NO
SIGNIFICANT WEATHER AND/OR OBSTRUCTION TO VISIBILITY.

MIZ047>049-052>055-059>063-066>070-074>076-081>083-211400-
SOUTHEAST LOWER MICHIGAN

CITY           SKY/WX    TMP DP  RH WIND       PRES   REMARKS
ADRIAN         MOSUNNY   63  57  81 W9        29.71R
ALMA           CLOUDY    58  55  89 W12G17    29.64R
ANN ARBOR      CLOUDY    64  55  72 W15       29.68R
BAD AXE        CLOUDY    61  61 100 SW10      29.57R
CARO           CLOUDY    62  60  94 SW12G18   29.59R
DETROIT CITY   SUNNY     66  58  75 W14G21    29.64R
DETROIT        PTSUNNY   66  57  72 W14G22    29.66R
FLINT          CLOUDY    62  57  83 W17G28    29.65R
GROSSE ILE     PTSUNNY   66  61  82 W9G20     29.65R
HILLSDALE      PTSUNNY   62  59  88 W12G21    29.72R
HOWELL         CLOUDY    59  56  91 W14G22    29.67R

CITY           SKY/WX    TMP DP  RH WIND       PRES   REMARKS
JACKSON        PTSUNNY   61  55  81 W9        29.70R
LAMBERTVILLE   MOSUNNY   66  59  77 W10G16    29.70R
LANSING        CLOUDY    59  54  83 W15       29.68R
LAPEER         CLOUDY    61  58  90 W9G17     29.62R
MASON          CLOUDY    59  55  84 W14G22    29.68R
MONROE         MOSUNNY   66  59  77 W12       29.66R
MT. CLEMENS    MOSUNNY   65  62  90 W12       29.60R
PONTIAC        PTSUNNY   61  56  83 W16G26    29.64R
PORT HOPE        N/A     62  59  90 VRB7      29.53S
PORT HURON     CLOUDY    63  63 100 SW7       29.60R
TRI CITIES     PTSUNNY   61  56  83 W22G29    29.62R
TROY           PTSUNNY   64  58  83 W8G18     29.65R
SAGINAW HB     PTSUNNY   61  61 100 W16       29.60R
$$
MIZ043>046-050>051-056>058-064>065-071>073-077>080-211400-
SOUTHWEST LOWER MICHIGAN

CITY           SKY/WX    TMP DP  RH WIND       PRES   REMARKS
BATTLE CREEK   PTSUNNY   60  54  80 W23G30    29.71S
BENTON HARBOR  MOSUNNY   60  50  69 W20G31    29.76S
BIG RAPIDS     CLOUDY    57  56  98 W12G21    29.63R
COLDWATER      PTSUNNY   63  56  77 W17G24    29.73R
FREMONT        RAIN      57  55  92 W10       29.66R
HOLLAND        CLOUDY    61  52  72 W20G31    29.71R
GRAND RAPIDS   PTSUNNY   60  55  83 W20G26    29.68S
IONIA          CLOUDY    59  55  88 W10G20    29.66S
KALAMAZOO      PTSUNNY   60  53  77 W14       29.73R
LUDINGTON      HVY RAIN  55  54  95 N9        29.65R
MARSHALL       CLOUDY    59  55  87 W17       29.70S
MOUNT PLEASANT CLOUDY    57  55  93 W9        29.61S
MUSKEGON       CLOUDY    60  52  74 W16G26    29.69R
SOUTH HAVEN    PTSUNNY   61  52  72 W18       29.74S
$$
MIZ016>042-211400-
NORTHERN LOWER MICHIGAN

CITY           SKY/WX    TMP DP  RH WIND       PRES   REMARKS
ALPENA         LGT RAIN  55  55 100 N10G25    29.57R
BEAVER ISLAND  LGT RAIN  54  53  97 N14G21    29.67R
BELLAIRE       CLOUDY    58  55  91 NW3       29.62R
CADILLAC       PTSUNNY   55  54  95 N7        29.62R
CHARLEVOIX     RAIN      56  56 100 N15G22    29.65R
FRANKFORT      DRIZZLE   57  54  88 N9        29.65R
GAYLORD        CLOUDY    53  52  96 NE8       29.62R
GRAYLING       CLOUDY    56  56  99 N5        29.62R
HARBOR SPRINGS RAIN      55  53  91 N7        29.63R
HOUGHTON LAKE  CLOUDY    56  54  93 N6        29.61R
MANISTEE       CLOUDY    57  54  88 N9G17     29.66R
OSCODA         LGT RAIN  57  57  98 N6        29.55R
PELLSTON       RAIN      54  53  97 N12       29.65R FOG
ROGERS CITY    HVY RAIN  52  52 100 NE12G18   29.62S
TRAVERSE CITY  CLOUDY    58  54  86 NW6       29.62R
$$
MIZ007>008-015-211400-
EASTERN UPPER MICHIGAN

CITY           SKY/WX    TMP DP  RH WIND       PRES   REMARKS
KINROSS        CLOUDY    50  46  87 N16G22    29.68R
MACKINAC ISLAN LGT RAIN  51  51  99 N17       29.65R
NEWBERRY       CLOUDY    49  46  90 N9G20     29.72R
S. S. MARIE    CLOUDY    50  43  77 NE8G21    29.69R
MUNISING         N/A     52  48  86 N25       29.78R
$$
MIZ004>006-011>014-085-211400-
CENTRAL UPPER MICHIGAN

CITY           SKY/WX    TMP DP  RH WIND       PRES   REMARKS
MANISTIQUE     DRIZZLE   51  50  97 N16       29.71R
ESCANABA       CLOUDY    50  46  87 N13G21    29.75R
MENOMINEE      CLOUDY    54  48  82 N12       29.74R
SAWYER-GWINN   LGT RAIN  46  45  93 N16       29.80R
$$
MIZ001>003-009>011-084-211400-
WESTERN UPPER MICHIGAN

CITY           SKY/WX    TMP DP  RH WIND       PRES   REMARKS
IRON MOUNTAIN  CLOUDY    51  47  86 N16G23    29.80R
HOUGHTON       LGT RAIN  44  40  85 N16G25    29.91R FOG
COPPER HARBOR    N/A     46  42  86 NE20G30   29.90R
IRONWOOD       CLOUDY    46  45  93 N7        29.93R
$$

ABBREVIATIONS USED IN REMARKS
   TC - TEMPERATURE IN CELSIUS
  WCI - WIND CHILL INDEX
   HX - HEAT INDEX
  VSB - VISIBILITY




USA.gov is the U.S. government's official web portal to all federal, state and local government web resources and services.